Regional Weather Roundup
Issued by NWS

Home | Current Version | Previous Version | Text Only | Print | Product List | Glossary On
Versions: 1 2 3 4 5 6 7 8 9 10 11 12 13 14 15 16 17 18 19 20 21 22 23 24 25 26 27 28 29 30 31 32 33 34 35 36 37 38 39 40 41 42 43 44 45 46 47 48 49 50
000
ASUS43 KMPX 292001
RWRMN
WEATHER ROUNDUP FOR MINNESOTA
NATIONAL WEATHER SERVICE TWIN CITIES/CHANHASSEN MN
300 PM CDT FRI JUL 29 2016


NOTE: "FAIR" INDICATES FEW OR NO CLOUDS BELOW 12,000 FEET WITH NO
SIGNIFICANT WEATHER AND/OR OBSTRUCTIONS TO VISIBILITY. N/A MEANS
CURRENT SKY AND/OR WEATHER CONDITIONS ARE NOT AVAILABLE.

MNZ060>063-068>070-292100-
   Twin Cities Metro

CITY           SKY/WX    TMP DP  RH WIND       PRES   REMARKS
TWIN CITIES    MOSUNNY   78  50  37 VRB6G16   30.05F
ST PAUL        SUNNY     77  51  40 VRB6      30.05F
CRYSTAL        SUNNY     77  47  34 VRB7      30.04F
BLAINE         MOSUNNY   77  50  38 N9        30.06F
LAKEVILLE      SUNNY     75  52  43 N3        30.05F
EDEN PRAIRIE   SUNNY     79  48  33 NW10      30.04F
LAKEVILLE      SUNNY     75  52  43 N3        30.05F
SOUTH ST PAUL  SUNNY     76  47  36 N5        30.05F
LAKE ELMO      FAIR      75  52  43 E7        30.07S
$$
MNZ001>005-007-008-013>017-022>024-027-028-292100-
   Northwest Minnesota

CITY           SKY/WX    TMP DP  RH WIND       PRES   REMARKS
BEMIDJI        MOSUNNY   77  57  50 E9        30.06F
HALLOCK        MOSUNNY   77  55  47 CALM      30.05F
ROSEAU         MOSUNNY   77  61  57 CALM      30.06S
WARROAD        SUNNY     75  61  60 NE7       30.06F
THIEF RVR FALL CLOUDY    76  54  46 VRB3      30.07F
CROOKSTON      MOSUNNY   75  54  46 N3        30.06F
FOSSTON        SUNNY     79  55  44 CALM      30.07F
DETROIT LAKES  CLOUDY    77  55  47 NW8       30.08S
MOORHEAD       MOSUNNY   79  57  47 CALM      30.05F
PARK RAPIDS    PTSUNNY   76  56  49 SE6       30.06F
$$
MNZ006-009>011-018-025>026-292100-
   North Central Minnesota

CITY           SKY/WX    TMP DP  RH WIND       PRES   REMARKS
BAUDETTE       MOSUNNY   80  56  43 VRB6      30.06F
FLAG ISLAND    SUNNY     75  50  41 SE5       30.05F
INTL FALLS     PTSUNNY   76  57  51 NE6       30.07F
WASKISH        MOSUNNY   79  61  53 W5        30.07S
BIG FORK       SUNNY     79  55  44 S5        30.09F
LONGVILLE      MOSUNNY   75  55  50 CALM      30.08F
GRAND RAPIDS   MOSUNNY   76  56  49 S8        30.10F
CRANE LAKE     PTSUNNY   73  50  43 S1        30.10F
ORR            CLOUDY    73  52  46 CALM      30.07S
COOK           PTSUNNY   73  55  53 CALM      30.10S
WALKER         MOCLDY    73  58  58 SE5       30.07F
$$
MNZ012-019>021-037-292100-
   Northeast Minnesota

CITY           SKY/WX    TMP DP  RH WIND       PRES   REMARKS
DULUTH         MOSUNNY   73  48  41 MISG      30.11F
ELY            PTSUNNY   75  48  38 CALM      30.09F
HIBBING        MOSUNNY   75  50  41 VRB3      30.09F
EVELETH        MOSUNNY   73  47  39 CALM      30.11F
DULUTH HARBOR  SUNNY     72  61  68 NE6       30.10F
TWO HARBORS    SUNNY     75  55  50 E6        30.09F
SILVER BAY     SUNNY     73  46  38 CALM      30.10F
GRAND MARAIS     N/A     69  55  60 S3        30.10S
G MARAIS ARPRT SUNNY     70  46  43 S3        30.14S
$$
MNZ029>031-032-039>041-046>048-054>057-064-292100-
   West Central Minnesota

CITY           SKY/WX    TMP DP  RH WIND       PRES   REMARKS
FERGUS FALLS   CLOUDY    75  64  69 S13       30.06F
WHEATON        MOSUNNY   79  63  57 SW7       30.08F
MORRIS         MOSUNNY   79  57  47 SE7       30.06F
ALEXANDRIA     PTSUNNY   75  53  46 VRB5      30.09F
ELBOW LAKE     PTSUNNY   74  60  61 S5        30.07F
WADENA         SUNNY     75  59  57 S6        30.07F
GLENWOOD       SUNNY     77  54  44 CALM      30.09F
APPLETON       CLOUDY    79  54  41 S3        30.07S
BENSON         MOSUNNY   75  52  43 SE6       30.07F
ORTONVILLE     MOSUNNY   79  57  47 CALM      30.07F
MADISON        CLOUDY    77  52  41 CALM      30.07F
WILLMAR        FAIR      77  57  50 E5        30.08F
$$
MNZ033>034-036-042>043-049>051-058-059-292100-
   Central Minnesota

CITY           SKY/WX    TMP DP  RH WIND       PRES   REMARKS
ST CLOUD       MOSUNNY   76  54  46 NE9       30.07F
SAUK CENTRE    FAIR      74  55  50 E6        30.09S
PAYNESVILLE    MOSUNNY   75  54  48 NE6       30.08F
AITKIN         PTSUNNY   79  50  36 CALM      30.08F
PINE RIVER     SUNNY     75  57  53 SE6       30.11F
BRAINERD       SUNNY     76  54  46 CALM      30.08F
STAPLES        SUNNY     75  54  46 CALM      30.07F
LONG PRAIRIE   PTSUNNY   72  55  56 NE5       30.09F
LITTLE FALLS   SUNNY     73  50  43 E3        30.08F
LITCHFIELD     SUNNY     77  57  50 NE8       30.07F
BUFFALO        SUNNY     77  49  37 NE9       30.07F
MAPLE LAKE     SUNNY     77  56  47 NE10      30.07F
HUTCHINSON     MOSUNNY   77  57  49 NE9       30.07F
$$
MNZ037-044-045-052-053-292100-
   East Central Minnesota

CITY           SKY/WX    TMP DP  RH WIND       PRES   REMARKS
PRINCETON      SUNNY     79  54  41 N8        30.08F
MORA           SUNNY     73  50  43 CALM      30.09F
CAMBRIDGE      SUNNY     75  55  50 E3        30.06F
RUSH CITY      SUNNY     75  53  47 N6        30.07F
MOOSE LAKE     SUNNY     73  48  40 E6        30.07F
HINCKLEY       FAIR      75  54  46 NE8       30.08F
CLOQUET        SUNNY     72  41  33 NE5       30.11F
MCGREGOR       MOSUNNY   77  52  41 NE5       30.09F
$$
MNZ071>073-080-081-089-090-097-098-292100-
   Southwest Minnesota

CITY           SKY/WX    TMP DP  RH WIND       PRES   REMARKS
MONTEVIDEO     SUNNY     79  55  44 CALM      30.09S
GRANITE FALLS  SUNNY     79  58  48 NE8       30.08F
CANBY          CLOUDY    78  54  43 E3        30.08F
MARSHALL       PTSUNNY   76  56  49 VRB3      30.08S
REDWOOD FALLS  SUNNY     79  54  41 N9        30.06F
OLIVIA         SUNNY     77  55  47 NE8       30.06F
PIPESTONE      MOSUNNY   77  54  44 NE3       30.09F
WINDOM         MOSUNNY   75  55  50 N8        30.07F
WORTHINGTON    MOSUNNY   76  59  55 NE9       30.08F
JACKSON        MOSUNNY   73  55  53 N6        30.07S
TRACY          MOSUNNY   76  57  51 CALM      30.08F
SLAYTON        MOSUNNY   75  56  52 NE5       30.10F HAZE
$$
MNZ065>067-074>077-082>085-091>093-292100-
   South Central Minnesota

CITY           SKY/WX    TMP DP  RH WIND       PRES   REMARKS
MANKATO        SUNNY     75  57  53 NE9G18    30.05F
NEW ULM        SUNNY     75  52  43 NE7       30.06S
ST JAMES       SUNNY     72  52  49 N8        30.06F
FAIRMONT       PTSUNNY   75  61  60 NE7       30.04F
GLENCOE        SUNNY     76  57  50 N7G17     30.06F
FARIBAULT      MOSUNNY   75  55  50 N8        30.05F
OWATONNA       MOSUNNY   75  61  60 NE9       30.04F
WASECA         PTSUNNY   73  61  64 N7        30.06S
ALBERT LEA     PTSUNNY   73  63  68 NE10      30.03F
$$
MNZ078>079-086>088-094>096-292100-
   Southeast Minnesota

CITY           SKY/WX    TMP DP  RH WIND       PRES   REMARKS
ROCHESTER      PTSUNNY   75  61  61 N14       30.04F
RED WING       MOSUNNY   77  52  41 N5        30.02F
STANTON        SUNNY     77  54  44 N6        30.03F
DODGE CENTER   MOSUNNY   73  57  56 NE8       30.04F
WINONA         CLOUDY    77  61  57 N5        30.02S
AUSTIN         MOSUNNY   75  59  57 N10G18    30.02F
PRESTON        PTSUNNY   71  61  68 NE10G16   30.03F
$$
ABBREVIATIONS USED IN REMARKS
   TC - TEMPERATURES IN CELSIUS
  WCI - WIND CHILL INDEX
   HX - HEAT INDEX
  VSB - VISIBILITY
$$




USA.gov is the U.S. government's official web portal to all federal, state and local government web resources and services.